CZ-4B DEB, 43660

Orbit data source: Space-Track

CZ-4B DEB, 43660 is space debris in LEO originally from a launch on Wed, 24 Oct 2018 UTC launched from the Taiyaun Space Center, China (TSC). Debris objects in space refer to the collection of defunct objects orbiting the Earth. Examples of debris include non-operational satellites, rocket bodies, and fragments generated from explosions, collisions, or faulty payload assembly.

Loading next visibility...
CZ-4B DEB details
Identifier
43660, 2018-081D
Orbit
LEO
Last TLE update11 hours ago
Origin
Flag of CNCNSA (CN / PRC)
ManufacturerSAST
MissionSpacecraft
Bus & MotorUnknown
MassUnknown
Launch date (UTC)
2018-10-24 (6 years ago)
Launch vehicleUnknown
Launch site
Taiyaun Space Center, China (TSC)
Object type
Payload
Rocket body
Debris
Shape & HBRUnknown
Radar Cross SectionSmall (<0.1 m²)

Expand to show TLE details & history

TLE from 11 hours ago
0 CZ-4B DEB
1 43660U 18081D   24336.86226066  .00000431  00000-0  38231-3 0  9999
2 43660  99.1687   3.7797 0014152  81.9774 278.2990 13.90351771309762
Epoch: 2024-12-01T20:41Z
Definitive object data (Epoch: 2024-12-01T20:41:39.321Z)
Latitude0.00002°
Longitude-17.82852°
Altitude928.779 km
Speed7.388 km/s
True Right ascension00h 15m 07s
True Declination0° 00' 00"
Sunlit
Object was in daylight at TLE epoch
Visualization TLE readout
Latitude-4.70573°
Longitude161.87613°
Altitude933.461 km
Speed7.384 km/s
Apparent Right ascension14h 19m 28s
Apparent Declination-26° 36' 15"
Sunlit
Object is in daylight
Visualization observer readout
Local Sidereal Time05:42:35
Azimuth88.403° E
Elevation-46.136°
Doppler factor1
Orbital elements
Apogee altitude934.954 km
Perigee altitude914.284 km
Semi-major axis7,302.756 km
Eccentricity0.0014152
Inclination99.1687°
RAAN3.7797°
Arg. of periapsis81.9774°
True anomaly278.13849°
Mean anomaly278.299°
Eccentric anomaly278.21875°
Mean motion3.47787 °/min
BSTAR0.00038231
Orbital period103.51 mins
Loading maneuver chart data...
Loading historical data...
Loading historical data...
Loading historical data...
Loading historical data...
Loading historical data...
Loading historical data...
Loading historical data...

CZ-4B DEB Visibility forecast

Observer location: undefined°, undefined

Span
Click to sort rows by Start time (UTC) header in descending order
Start Az.
Max El. time (UTC)
Max El. Az.
Max El.
End time (UTC)
End Az.
10 mins2024-12-02 14:33:26.151Z24.833° NE2024-12-02 14:38:26.151Z109.916° ESE40.158°2024-12-02 14:43:26.151Z178.807° S
6 mins2024-12-02 16:17:26.151Z330.815° NNW2024-12-02 16:20:26.151Z291.764° WNW19.812°2024-12-02 16:23:26.151Z257.115° W
6 mins2024-12-03 00:30:26.151Z91.889° ESE2024-12-03 00:33:26.151Z56.205° ENE17.258°2024-12-03 00:36:26.151Z23.132° NE
10 mins2024-12-03 02:10:26.151Z176.972° S2024-12-03 02:14:26.151Z236.821° WSW42.683°2024-12-03 02:20:26.151Z340.694° N
|